Content
SEND FEEDBACK

Daily
Averages
Monthly
Summary
United States of America

WALKER, OREGON


Home > North America > United States > Oregon
Elevation: 610 feet     Latitude: 43 50N     Longitude: 123 03W

WEATHER
 
SELECT A DAY
Number of Records: 213,481;   Date Range: 1/1/95 - 10/20/14
 
SHARE

PRINT THIS DATA

[ ← Previous Day ]
WEATHER ALMANAC - JANUARY 31, 2013
[ Next Day → ]
[ °C ]   °F
Weather ElementAverageHighLow
Temperature44.9 °F53.6 °F (3:19 pm)36 °F (11:54 pm)
Dewpoint42.6 °F45 °F (1:54 am)35.1 °F (11:54 pm)
Humidity92 %100 % (12:51 am)67 % (3:19 pm)
Barometer30.43 in30.48 in (12:54 am)30.36 in (6:54 pm)
Wind Speed1.8 mph6.9 mph (8:29 am)
Weather ElementAverage
Visibility5.4 mi
Wind DirectionENE (77.9 °)

Weather ElementTotal
Precipitation0.13 in
Heating Degree Days20.2 (Base 65)
Averaged from 48 records on January 31, 2013
WEATHER CONDITIONS BREAKOUT
WIND DIRECTION BREAKOUT
WEATHER BY HOUR - JANUARY 31, 2013
[ °C ]   °F
Local TimeTemperatureDewpointHumidityBarometerVisibilityWind DirectionWind SpeedGust SpeedPrecipitationEventsConditions
12:51 AM44.6 °F44.6 °F100 %30.47 in3.0 miCalmOvercast
12:54 AM45.0 °F44.1 °F97 %30.48 in3.0 miCalmOvercast
1:03 AM44.6 °F44.6 °F100 %30.46 in2.0 miESE (110°)3.5 mphOvercast
1:13 AM44.6 °F44.6 °F100 %30.46 in1.8 miSE (130°)3.5 mphOvercast
1:32 AM46.4 °F44.6 °F93 %30.46 in2.5 miCalm0.01 inOvercast
1:54 AM46.0 °F45.0 °F96 %30.47 in2.5 miCalm0.01 inOvercast
2:05 AM46.4 °F44.6 °F93 %30.46 in1.8 miCalmOvercast
2:26 AM44.6 °F44.6 °F100 %30.46 in2.5 miCalm0.01 inOvercast
2:51 AM44.6 °F42.8 °F93 %30.46 in2.5 miCalm0.01 inOvercast
2:54 AM45.0 °F43.0 °F93 %30.47 in2.5 miCalm0.01 inOvercast
3:13 AM44.6 °F44.6 °F100 %30.45 in2.5 miCalm0.01 inOvercast
3:44 AM44.6 °F42.8 °F93 %30.44 in3.0 miCalm0.01 inOvercast
3:51 AM44.6 °F42.8 °F93 %30.44 in3.0 miCalm0.01 inOvercast
3:54 AM45.0 °F43.0 °F93 %30.44 in2.5 miCalm0.01 inOvercast
4:02 AM44.6 °F42.8 °F93 %30.44 in1.8 miCalmOvercast
4:26 AM44.6 °F42.8 °F93 %30.43 in3.0 miCalmOvercast
4:54 AM44.1 °F43.0 °F96 %30.44 in4.0 miCalmOvercast
5:09 AM44.6 °F42.8 °F93 %30.44 in4.0 miCalmOvercast
5:37 AM44.6 °F44.6 °F100 %30.43 in2.5 miCalmOvercast
5:54 AM44.1 °F44.1 °F100 %30.44 in2.0 miCalm0.01 inOvercast
6:07 AM44.6 °F42.8 °F93 %30.43 in3.0 miCalmOvercast
6:15 AM44.6 °F42.8 °F93 %30.43 in3.0 miSSE (150°)3.5 mphOvercast
6:34 AM44.6 °F42.8 °F93 %30.43 in3.0 miSouth (190°)3.5 mphOvercast
6:54 AM44.1 °F43.0 °F96 %30.45 in4.0 miCalmOvercast
7:08 AM44.6 °F42.8 °F93 %30.43 in2.5 miSouth (170°)3.5 mphOvercast
7:26 AM42.8 °F42.8 °F100 %30.43 in1.5 miSouth (170°)3.5 mph0.01 inOvercast
7:36 AM42.8 °F42.8 °F100 %30.43 in2.5 miSSE (160°)3.5 mph0.01 inOvercast
7:54 AM43.0 °F42.1 °F97 %30.45 in3.0 miSSE (160°)3.5 mph0.01 inOvercast
8:29 AM42.8 °F41.0 °F93 %30.44 in6.0 miSE (130°)6.9 mphOvercast
8:54 AM43.0 °F41.0 °F93 %30.45 in7.0 miSE (140°)5.8 mphOvercast
9:54 AM44.1 °F41.0 °F89 %30.45 in8.0 miSSE (150°)4.6 mphOvercast
10:44 AM44.6 °F42.8 °F93 %30.45 in7.0 miCalmOvercast
10:54 AM46.0 °F43.0 °F89 %30.45 in9.0 miSouth (180°)3.5 mphMostly Cloudy
11:54 AM48.9 °F44.1 °F83 %30.43 in10.0 miCalmMostly Cloudy
12:42 PM48.2 °F44.6 °F87 %30.41 in10.0 miCalmMostly Cloudy
12:54 PM50.0 °F44.1 °F80 %30.41 in10.0 miSouth (180°)3.5 mphMostly Cloudy
1:54 PM50.0 °F43.0 °F77 %30.39 in10.0 miCalmMostly Cloudy
2:54 PM51.1 °F42.1 °F71 %30.39 in10.0 miCalmMostly Cloudy
3:19 PM53.6 °F42.8 °F67 %30.38 in10.0 miNNW (330°)3.5 mphMostly Cloudy
3:54 PM53.6 °F42.8 °F67 %30.38 in10.0 miCalmMostly Cloudy
4:54 PM51.8 °F42.8 °F71 %30.37 in10.0 miCalmMostly Cloudy
5:54 PM45.0 °F42.1 °F90 %30.37 in10.0 miSSW (200°)3.5 mphScattered Clouds
6:54 PM41.0 °F39.2 °F93 %30.36 in10.0 miSSE (160°)3.5 mphPartly Cloudy
7:54 PM39.2 °F39.2 °F100 %30.36 in10.0 miSSE (160°)3.5 mphPartly Cloudy
8:54 PM42.1 °F41.0 °F96 %30.37 in10.0 miSouth (190°)6.9 mphScattered Clouds
9:54 PM37.4 °F37.4 °F100 %30.36 in10.0 miSSW (200°)4.6 mphPartly Cloudy
10:54 PM39.0 °F37.9 °F96 %30.37 in10.0 miWest (260°)4.6 mphMostly Cloudy
11:54 PM36.0 °F35.1 °F97 %30.38 in8.0 miSW (220°)3.5 mphPartly Cloudy
Hourly data recorded from KEUG, located miles away from Walker, Oregon







STORIES FROM OUR PARTNERS